VOZ9273 YANG-YBRM

Flight info

Callsign VOZ9273
Flight time 0h 58m
Altitude 35000
Route ASEBU Y31 BRM
Aircraft A320/M-SDE3FGHIRWY/LB1

Departure

Time 2026-05-06 09:55
Airport West Angelas Airport (YANG)

Arrival

Time 2026-05-06 10:53
Airport Broome International Airport (YBRM)
Time Latitude Longitude Altitude Speed Heading
2026-05-06 09:42 -23.13696 118.70416 2297 ft 0 kts 334°
2026-05-06 09:52 -23.13694 118.70415 2297 ft 0 kts 340°
2026-05-06 09:52 -23.13687 118.70428 2299 ft 0 kts 68°
2026-05-06 09:52 -23.13685 118.70438 2299 ft 3 kts 79°
2026-05-06 09:52 -23.13684 118.70474 2296 ft 6 kts 89°
2026-05-06 09:53 -23.13702 118.70531 2304 ft 10 kts 128°
2026-05-06 09:53 -23.13773 118.70547 2299 ft 13 kts 215°
2026-05-06 09:53 -23.13840 118.70480 2298 ft 14 kts 224°
2026-05-06 09:53 -23.13915 118.70397 2301 ft 17 kts 225°
2026-05-06 09:54 -23.14006 118.70298 2300 ft 20 kts 224°
2026-05-06 09:54 -23.14107 118.70188 2301 ft 22 kts 225°
2026-05-06 09:54 -23.14202 118.70107 2299 ft 15 kts 200°
2026-05-06 09:54 -23.14200 118.70085 2295 ft 5 kts 27°
2026-05-06 09:55 -23.14107 118.70184 2300 ft 52 kts 46°
2026-05-06 09:55 -23.13647 118.70693 2301 ft 133 kts 45°
2026-05-06 09:55 -23.12941 118.71487 2851 ft 144 kts 50°
2026-05-06 09:55 -23.12467 118.72014 3316 ft 149 kts 51°
2026-05-06 09:56 -23.11722 118.72833 4108 ft 155 kts 51°
2026-05-06 09:56 -23.10913 118.73714 4531 ft 175 kts 50°
2026-05-06 09:56 -23.09992 118.74705 4791 ft 198 kts 49°
2026-05-06 09:56 -23.08948 118.75822 5072 ft 223 kts 49°
2026-05-06 09:57 -23.07779 118.77071 5504 ft 247 kts 48°
2026-05-06 09:57 -23.06518 118.78416 6158 ft 260 kts 48°
2026-05-06 09:57 -23.05210 118.79806 6993 ft 265 kts 47°
2026-05-06 09:57 -23.03888 118.81209 7713 ft 273 kts 46°
2026-05-06 09:58 -23.02545 118.82629 8638 ft 273 kts 47°
2026-05-06 09:58 -23.01175 118.84083 9466 ft 277 kts 46°
2026-05-06 09:58 -22.99783 118.85563 10192 ft 286 kts 45°
2026-05-06 09:58 -22.98300 118.87139 10441 ft 310 kts 45°
2026-05-06 09:59 -22.96718 118.88820 10789 ft 328 kts 45°
2026-05-06 09:59 -22.95062 118.90580 11345 ft 336 kts 45°
2026-05-06 09:59 -22.93375 118.92370 12012 ft 342 kts 45°
2026-05-06 09:59 -22.91662 118.94188 12693 ft 347 kts 45°
2026-05-06 10:00 -22.89919 118.96040 13373 ft 352 kts 45°
2026-05-06 10:00 -22.88159 118.97911 14013 ft 358 kts 45°
2026-05-06 10:00 -22.85784 119.00434 14807 ft 364 kts 45°
2026-05-06 10:00 -22.84555 119.01737 15181 ft 368 kts 44°
2026-05-06 10:01 -22.82715 119.03688 15780 ft 372 kts 44°
2026-05-06 10:01 -22.80852 119.05661 16345 ft 377 kts 44°
2026-05-06 10:01 -22.78970 119.07650 16943 ft 381 kts 44°
2026-05-06 10:01 -22.77060 119.09670 17553 ft 384 kts 43°
2026-05-06 10:02 -22.75158 119.11683 18102 ft 390 kts 43°
2026-05-06 10:02 -22.73211 119.13740 18683 ft 393 kts 43°
2026-05-06 10:02 -22.71238 119.15826 19182 ft 398 kts 44°
2026-05-06 10:02 -22.69250 119.17927 19728 ft 402 kts 43°
2026-05-06 10:03 -22.67242 119.20047 20306 ft 405 kts 43°
2026-05-06 10:03 -22.65217 119.22190 20827 ft 409 kts 43°
2026-05-06 10:03 -22.63175 119.24350 21354 ft 413 kts 44°
2026-05-06 10:03 -22.61114 119.26528 21920 ft 415 kts 43°
2026-05-06 10:04 -22.59030 119.28728 22441 ft 419 kts 44°
2026-05-06 10:04 -22.56940 119.30932 22985 ft 422 kts 44°
2026-05-06 10:04 -22.54826 119.33158 23521 ft 425 kts 44°
2026-05-06 10:04 -22.52695 119.35400 23978 ft 428 kts 43°
2026-05-06 10:05 -22.50550 119.37656 24407 ft 432 kts 43°
2026-05-06 10:05 -22.48392 119.39928 24832 ft 435 kts 43°
2026-05-06 10:05 -22.46215 119.42218 25220 ft 438 kts 43°
2026-05-06 10:05 -22.44018 119.44526 25613 ft 442 kts 43°
2026-05-06 10:06 -22.41834 119.46822 25980 ft 446 kts 42°
2026-05-06 10:06 -22.39599 119.49173 26339 ft 450 kts 42°
2026-05-06 10:06 -22.37346 119.51543 26663 ft 455 kts 42°
2026-05-06 10:06 -22.35065 119.53939 26991 ft 460 kts 41°
2026-05-06 10:07 -22.32762 119.56358 27334 ft 464 kts 41°
2026-05-06 10:07 -22.30431 119.58803 27664 ft 468 kts 41°
2026-05-06 10:07 -22.28085 119.61260 27993 ft 472 kts 41°
2026-05-06 10:07 -22.25720 119.63739 28315 ft 476 kts 40°
2026-05-06 10:08 -22.23330 119.66239 28643 ft 480 kts 40°
2026-05-06 10:08 -22.20923 119.68753 28971 ft 484 kts 40°
2026-05-06 10:08 -22.18497 119.71288 29291 ft 487 kts 40°
2026-05-06 10:08 -22.16051 119.73844 29617 ft 491 kts 40°
2026-05-06 10:09 -22.13587 119.76415 29944 ft 495 kts 40°
2026-05-06 10:09 -22.11103 119.79009 30258 ft 499 kts 40°
2026-05-06 10:09 -22.08598 119.81627 30524 ft 503 kts 40°
2026-05-06 10:09 -22.06077 119.84260 30770 ft 506 kts 39°
2026-05-06 10:10 -22.03538 119.86913 31029 ft 510 kts 39°
2026-05-06 10:10 -22.00979 119.89586 31246 ft 514 kts 39°
2026-05-06 10:10 -21.98403 119.92274 31461 ft 518 kts 39°
2026-05-06 10:10 -21.95806 119.94980 31801 ft 519 kts 39°
2026-05-06 10:11 -21.93205 119.97687 32146 ft 520 kts 38°
2026-05-06 10:11 -21.90598 120.00392 32482 ft 522 kts 38°
2026-05-06 10:11 -21.87982 120.03106 32823 ft 523 kts 38°
2026-05-06 10:11 -21.85361 120.05830 33153 ft 524 kts 38°
2026-05-06 10:12 -21.82734 120.08562 33491 ft 526 kts 38°
2026-05-06 10:12 -21.80101 120.11295 33835 ft 527 kts 38°
2026-05-06 10:12 -21.77488 120.13998 34055 ft 530 kts 38°
2026-05-06 10:12 -21.74810 120.16763 34175 ft 536 kts 38°
2026-05-06 10:13 -21.72107 120.19556 34283 ft 541 kts 38°
2026-05-06 10:13 -21.69381 120.22377 34395 ft 546 kts 38°
2026-05-06 10:13 -21.66641 120.25216 34530 ft 549 kts 38°
2026-05-06 10:13 -21.63890 120.28072 34724 ft 550 kts 38°
2026-05-06 10:14 -21.61136 120.30931 34939 ft 551 kts 38°
2026-05-06 10:14 -21.58376 120.33789 35086 ft 552 kts 38°
2026-05-06 10:14 -21.52836 120.39507 35125 ft 552 kts 38°
2026-05-06 10:15 -21.47259 120.45248 35123 ft 556 kts 38°
2026-05-06 10:15 -21.41673 120.51004 35115 ft 557 kts 38°
2026-05-06 10:16 -21.36074 120.56770 35111 ft 557 kts 38°
2026-05-06 10:16 -21.30481 120.62518 35078 ft 557 kts 38°
2026-05-06 10:17 -21.24902 120.68243 35089 ft 558 kts 38°
2026-05-06 10:17 -21.19283 120.74004 35095 ft 559 kts 38°
2026-05-06 10:18 -21.13662 120.79767 35099 ft 560 kts 38°
2026-05-06 10:18 -21.08030 120.85527 35105 ft 560 kts 38°
2026-05-06 10:19 -21.02393 120.91284 35103 ft 560 kts 38°
2026-05-06 10:19 -20.96749 120.97041 35097 ft 560 kts 38°
2026-05-06 10:20 -20.91112 121.02787 35072 ft 560 kts 38°
2026-05-06 10:20 -20.85461 121.08545 35077 ft 561 kts 38°
2026-05-06 10:21 -20.79807 121.14301 35090 ft 561 kts 38°
2026-05-06 10:21 -20.74183 121.20020 35091 ft 561 kts 38°
2026-05-06 10:22 -20.68528 121.25767 35080 ft 561 kts 38°
2026-05-06 10:22 -20.62866 121.31509 35085 ft 561 kts 38°
2026-05-06 10:23 -20.57204 121.37244 35054 ft 561 kts 38°
2026-05-06 10:23 -20.51546 121.42976 35064 ft 561 kts 38°
2026-05-06 10:24 -20.45890 121.48698 35070 ft 561 kts 38°
2026-05-06 10:24 -20.40261 121.54379 35061 ft 560 kts 38°
2026-05-06 10:25 -20.34600 121.60088 35068 ft 560 kts 38°
2026-05-06 10:25 -20.28938 121.65794 35064 ft 560 kts 38°
2026-05-06 10:26 -20.23280 121.71487 35031 ft 560 kts 38°
2026-05-06 10:26 -20.17619 121.77173 35040 ft 559 kts 38°
2026-05-06 10:27 -20.11561 121.82179 35048 ft 543 kts 21°
2026-05-06 10:27 -20.08197 121.83897 35049 ft 532 kts 13°
2026-05-06 10:27 -20.04766 121.85378 35050 ft 532 kts 13°
2026-05-06 10:28 -20.01373 121.86863 35030 ft 519 kts 13°
2026-05-06 10:28 -19.98091 121.88317 35030 ft 506 kts 13°
2026-05-06 10:28 -19.91643 121.91161 35031 ft 499 kts 13°
2026-05-06 10:29 -19.85229 121.93963 34885 ft 498 kts 13°
2026-05-06 10:29 -19.82004 121.95361 34202 ft 501 kts 13°
2026-05-06 10:29 -19.78779 121.96759 33626 ft 500 kts 13°
2026-05-06 10:30 -19.75567 121.98153 33074 ft 498 kts 13°
2026-05-06 10:30 -19.72367 121.99543 32523 ft 495 kts 13°
2026-05-06 10:30 -19.69189 122.00930 32028 ft 492 kts 13°
2026-05-06 10:30 -19.66048 122.02310 31545 ft 487 kts 13°
2026-05-06 10:31 -19.62969 122.03660 31146 ft 481 kts 13°
2026-05-06 10:31 -19.59891 122.05008 30715 ft 476 kts 13°
2026-05-06 10:31 -19.56852 122.06337 30159 ft 468 kts 13°
2026-05-06 10:31 -19.53869 122.07640 29306 ft 459 kts 13°
2026-05-06 10:32 -19.50963 122.08905 28833 ft 442 kts 13°
2026-05-06 10:32 -19.48176 122.10123 28513 ft 425 kts 13°
2026-05-06 10:32 -19.45439 122.11309 28085 ft 423 kts 13°
2026-05-06 10:32 -19.42715 122.12479 27654 ft 423 kts 13°
2026-05-06 10:33 -19.39992 122.13647 27220 ft 422 kts 13°
2026-05-06 10:33 -19.37270 122.14818 26773 ft 422 kts 13°
2026-05-06 10:33 -19.34553 122.15994 26330 ft 422 kts 13°
2026-05-06 10:33 -19.31838 122.17172 25872 ft 422 kts 14°
2026-05-06 10:34 -19.29118 122.18353 25410 ft 422 kts 14°
2026-05-06 10:34 -19.26399 122.19531 24922 ft 423 kts 14°
2026-05-06 10:34 -19.23685 122.20708 24592 ft 419 kts 14°
2026-05-06 10:34 -19.20999 122.21877 24019 ft 414 kts 14°
2026-05-06 10:35 -19.18366 122.23024 23465 ft 404 kts 14°
2026-05-06 10:35 -19.15811 122.24139 22964 ft 390 kts 14°
2026-05-06 10:35 -19.13344 122.25215 22515 ft 376 kts 14°
2026-05-06 10:35 -19.10965 122.26246 22072 ft 363 kts 14°
2026-05-06 10:36 -19.08644 122.27245 21657 ft 358 kts 14°
2026-05-06 10:36 -19.06361 122.28221 21236 ft 358 kts 14°
2026-05-06 10:36 -19.04051 122.29208 20809 ft 358 kts 15°
2026-05-06 10:36 -19.01740 122.30197 20382 ft 359 kts 15°
2026-05-06 10:37 -18.99426 122.31194 19950 ft 359 kts 16°
2026-05-06 10:37 -18.97114 122.32192 19516 ft 359 kts 16°
2026-05-06 10:37 -18.94782 122.33095 19089 ft 354 kts
2026-05-06 10:37 -18.92387 122.33506 18690 ft 346 kts 359°
2026-05-06 10:38 -18.89989 122.33724 18281 ft 345 kts 359°
2026-05-06 10:38 -18.87597 122.33950 17832 ft 344 kts 360°
2026-05-06 10:38 -18.85222 122.34181 17431 ft 342 kts 360°
2026-05-06 10:38 -18.82861 122.34413 17029 ft 339 kts
2026-05-06 10:39 -18.80517 122.34641 16641 ft 337 kts
2026-05-06 10:39 -18.78189 122.34868 16245 ft 335 kts
2026-05-06 10:39 -18.75874 122.35093 15861 ft 333 kts
2026-05-06 10:39 -18.73571 122.35315 15468 ft 331 kts
2026-05-06 10:40 -18.71279 122.35538 15079 ft 330 kts
2026-05-06 10:40 -18.69029 122.35759 14692 ft 328 kts
2026-05-06 10:40 -18.66758 122.35979 14320 ft 327 kts
2026-05-06 10:40 -18.64494 122.36194 13931 ft 326 kts
2026-05-06 10:41 -18.62237 122.36410 13519 ft 325 kts
2026-05-06 10:41 -18.59994 122.36623 13126 ft 323 kts
2026-05-06 10:41 -18.57763 122.36837 12744 ft 321 kts
2026-05-06 10:41 -18.55546 122.37051 12361 ft 319 kts
2026-05-06 10:42 -18.53345 122.37263 11980 ft 317 kts
2026-05-06 10:42 -18.51154 122.37474 11598 ft 315 kts
2026-05-06 10:42 -18.48974 122.37683 11223 ft 314 kts
2026-05-06 10:42 -18.47538 122.37821 10970 ft 313 kts
2026-05-06 10:43 -18.45373 122.38031 10586 ft 312 kts
2026-05-06 10:43 -18.43219 122.38239 10212 ft 310 kts
2026-05-06 10:43 -18.41075 122.38444 9885 ft 308 kts
2026-05-06 10:44 -18.36950 122.38839 9146 ft 291 kts
2026-05-06 10:44 -18.34959 122.39029 8733 ft 286 kts
2026-05-06 10:44 -18.32976 122.39217 8366 ft 285 kts
2026-05-06 10:44 -18.31003 122.39406 8015 ft 284 kts
2026-05-06 10:45 -18.29032 122.39598 7663 ft 284 kts
2026-05-06 10:45 -18.27064 122.39789 7309 ft 283 kts
2026-05-06 10:45 -18.25113 122.39978 6972 ft 282 kts
2026-05-06 10:45 -18.23164 122.40168 6646 ft 281 kts
2026-05-06 10:46 -18.21230 122.40354 6367 ft 277 kts
2026-05-06 10:46 -18.19309 122.40539 6005 ft 277 kts
2026-05-06 10:46 -18.17390 122.40725 5682 ft 275 kts
2026-05-06 10:46 -18.15500 122.40908 5397 ft 272 kts
2026-05-06 10:47 -18.13630 122.41085 5160 ft 267 kts
2026-05-06 10:47 -18.11813 122.41256 5016 ft 255 kts
2026-05-06 10:47 -18.10113 122.41414 4913 ft 237 kts
2026-05-06 10:47 -18.08502 122.41567 4804 ft 228 kts
2026-05-06 10:48 -18.06950 122.41528 4597 ft 222 kts 355°
2026-05-06 10:48 -18.05410 122.41405 4296 ft 221 kts 355°
2026-05-06 10:48 -18.03888 122.41280 4010 ft 216 kts 356°
2026-05-06 10:48 -18.02417 122.41155 3736 ft 207 kts 355°
2026-05-06 10:49 -18.01007 122.40994 3479 ft 202 kts 345°
2026-05-06 10:49 -17.99819 122.40267 3241 ft 199 kts 315°
2026-05-06 10:49 -17.99176 122.38996 2954 ft 199 kts 289°
2026-05-06 10:49 -17.98811 122.37619 2695 ft 193 kts 288°
2026-05-06 10:50 -17.98455 122.36258 2439 ft 191 kts 289°
2026-05-06 10:50 -17.98122 122.34982 2213 ft 175 kts 290°
2026-05-06 10:50 -17.97812 122.33792 1996 ft 164 kts 288°
2026-05-06 10:50 -17.97506 122.32661 1810 ft 158 kts 290°
2026-05-06 10:51 -17.97208 122.31551 1585 ft 157 kts 289°
2026-05-06 10:51 -17.96921 122.30464 1370 ft 152 kts 290°
2026-05-06 10:51 -17.96644 122.29406 1164 ft 149 kts 288°
2026-05-06 10:51 -17.96383 122.28362 916 ft 148 kts 287°
2026-05-06 10:52 -17.96108 122.27319 675 ft 148 kts 287°
2026-05-06 10:52 -17.95813 122.26272 472 ft 150 kts 285°
2026-05-06 10:52 -17.95532 122.25229 321 ft 148 kts 282°
2026-05-06 10:52 -17.95260 122.24179 126 ft 149 kts 285°
2026-05-06 10:53 -17.94979 122.23145 41 ft 138 kts 284°
2026-05-06 10:53 -17.94801 122.22436 57 ft 57 kts 284°
2026-05-06 10:53 -17.94701 122.22070 58 ft 50 kts 286°
2026-05-06 10:53 -17.94629 122.21800 59 ft 26 kts 285°
2026-05-06 10:54 -17.94594 122.21637 59 ft 17 kts 264°
2026-05-06 10:54 -17.94577 122.21603 60 ft 6 kts 81°
2026-05-06 10:54 -17.94599 122.21691 61 ft 20 kts 106°
2026-05-06 10:54 -17.94659 122.21906 60 ft 37 kts 107°
2026-05-06 10:55 -17.94730 122.22179 55 ft 43 kts 105°
2026-05-06 10:55 -17.94814 122.22491 58 ft 45 kts 105°
2026-05-06 10:55 -17.94902 122.22822 51 ft 49 kts 105°
2026-05-06 10:55 -17.94997 122.23177 39 ft 52 kts 105°
2026-05-06 10:56 -17.95074 122.23390 35 ft 18 kts 153°
2026-05-06 10:56 -17.95141 122.23369 37 ft 13 kts 193°
2026-05-06 10:56 -17.95202 122.23306 37 ft 13 kts 219°
2026-05-06 10:56 -17.95284 122.23281 37 ft 10 kts 194°
2026-05-06 10:57 -17.95331 122.23283 37 ft 2 kts 76°
2026-05-06 10:57 -17.95316 122.23311 37 ft 4 kts 69°
2026-05-06 10:57 -17.95312 122.23321 35 ft 0 kts 70°